User: anonymous   Login
Location: Unspecified
(0.0000°N, 0.0000°E)
Time: 23:53:01
(UTC+00:00)
Language:

STARLINK-32123 - Orbit

View from above orbital plane
View from above orbital plane
View from above satellite
View from above satellite

Ground track
Ground track

The orbit is defined by the following mean orbital elements,

1 60284U          26145.01102832 +.00000000 +00000-0 +32829-4 0 00006
2 60284  53.1609  45.2913 0001301  80.8599 279.2549 15.30180857    00
Epoch (UTC): 25 May 2026 00:15:52
Eccentricity: 0.0001301
inclination: 53.1609°
perigee height: 474 km
apogee height: 476 km
right ascension of ascending node: 45.2913°
argument of perigee: 80.8599°
revolutions per day: 15.30180857
mean anomaly at epoch: 279.2549°

The dashed part of the orbit path shows where the satellite is in the earth's shadow,  

DLR